MAX VALIER SAT (42778 NORAD) Tracking and Keplerian Element Data

This shows tracking and keplerian element data for the satellite.

Feedback or suggestion? Click here.




ElementValue
Catalog42778
NameMAX VALIER SAT
Epoch Orbit10659
Epoch Day145.72870174
Epoch Year2019
RAAN203.9207
Inclination97.3561
Eccentricity0.0010984
Argument of Perigee314.3823
Mean Anonmoly45.6513
Mean Motion15.21969391
Decay Rate5.38E-06
L11 42778U 17036P 19145.72870174 .00000538 00000-0 26562-4 0 9992
L22 42778 97.3561 203.9207 0010984 314.3823 45.6513 15.21969391106591

Live tracking and technical data element details for MAX VALIER SAT (NORAD 42778). MAX VALIER SAT can be tracked NOW for your location showing map with azimuth and elevation plus other details from your city location.

Track the satellite on the map from your city or location and see movement details for azimuth, elevation, latitude, longitude, range, height, and movement on the map or in text.







IsCatalogInMostPopularTable: catalog: 42778, numindb: 202
Update: records affected: 1



GetName: 42778 MAX VALIER SAT

Hit Count: updated at: Sun, 26 May 2019 20:04:52 GMT